Retour au catalogue

THORAD DELTA 1 DEB

ActifSSO
NORAD 8403·DEBRIS·🇺🇸 United States

Lancé Nov 15, 1974 depuis Vandenberg Space Force Base

Loading…

Prochains Passages (prochaines 24 heures)

TLE

FraisSource: Space-Track

Époque: Sep 13, 2026, 05:20 UTC

1  8403U 74089CF  26256.22291561  .00000108  00000-0  10295-2 0  9990
2  8403 101.5468 351.6424 0055740 230.3348 158.3786 12.47085334360476

Suivez THORAD DELTA 1 DEB en temps réel avec AllMySat

Download on the App Store